TimeCDT,TemperatureF,Dew PointF,Humidity,Sea Level PressureIn,VisibilityMPH,Wind Direction,Wind SpeedMPH,Gust SpeedMPH,PrecipitationIn,Events,Conditions,WindDirDegrees,DateUTC
12:54 AM,36.0,21.0,55,30.18,10.0,South,5.8,-,N/A,,Overcast,180,2013-03-30 05:54:00
1:54 AM,34.0,21.9,61,30.16,10.0,South,9.2,-,N/A,,Overcast,180,2013-03-30 06:54:00
2:54 AM,35.1,24.1,64,30.14,10.0,South,4.6,-,N/A,,Overcast,180,2013-03-30 07:54:00
3:54 AM,34.0,24.1,67,30.11,10.0,South,6.9,-,N/A,,Overcast,170,2013-03-30 08:54:00
4:54 AM,35.1,26.1,70,30.09,10.0,South,9.2,-,N/A,,Overcast,180,2013-03-30 09:54:00
5:54 AM,35.1,27.0,72,30.07,10.0,South,9.2,-,0.00,Rain,Light Rain,180,2013-03-30 10:54:00
6:54 AM,35.1,27.0,72,30.04,10.0,South,11.5,-,0.00,,Overcast,170,2013-03-30 11:54:00
7:54 AM,37.0,27.0,67,30.02,10.0,South,13.8,-,N/A,,Overcast,180,2013-03-30 12:54:00
8:54 AM,37.0,28.0,70,30.02,5.0,South,6.9,-,0.00,Rain,Light Rain,190,2013-03-30 13:54:00
9:54 AM,34.0,30.0,85,29.99,4.0,South,9.2,-,0.03,Rain,Rain,170,2013-03-30 14:54:00
10:54 AM,36.0,30.0,79,29.96,8.0,South,9.2,-,0.03,Rain,Light Rain,180,2013-03-30 15:54:00
11:54 AM,35.1,30.9,85,29.95,4.0,South,11.5,-,0.03,Rain,Light Rain,170,2013-03-30 16:54:00
12:49 PM,35.6,32.0,87,29.88,6.0,South,10.4,-,0.01,Rain,Light Rain,170,2013-03-30 17:49:00
12:54 PM,36.0,32.0,86,29.92,5.0,South,11.5,-,0.01,Rain,Light Rain,170,2013-03-30 17:54:00
1:45 PM,35.6,33.8,93,29.85,5.0,South,6.9,-,0.00,Rain,Light Rain,170,2013-03-30 18:45:00
1:54 PM,36.0,33.1,89,29.89,5.0,South,6.9,-,0.00,,Overcast,170,2013-03-30 18:54:00
2:28 PM,39.2,37.4,93,29.84,3.0,SSW,6.9,-,0.01,Rain,Light Rain,210,2013-03-30 19:28:00
2:35 PM,39.2,37.4,93,29.84,4.0,SW,5.8,-,0.01,Rain,Light Rain,220,2013-03-30 19:35:00
2:54 PM,41.0,37.0,86,29.88,3.0,West,4.6,-,0.01,Rain,Light Rain,260,2013-03-30 19:54:00
3:01 PM,39.2,37.4,93,29.84,2.5,West,4.6,-,0.01,Rain,Rain,280,2013-03-30 20:01:00
3:17 PM,37.4,35.6,93,29.84,1.5,WNW,5.8,-,0.03,Rain,Rain,300,2013-03-30 20:17:00
3:54 PM,39.0,39.0,100,29.87,1.2,SSW,5.8,-,0.09,Rain,Light Rain,210,2013-03-30 20:54:00
3:59 PM,39.2,37.4,93,29.82,1.0,South,6.9,-,0.00,Rain,Light Rain,190,2013-03-30 20:59:00
4:06 PM,37.4,37.4,100,29.82,0.5,SSW,4.6,-,0.00,Fog-Rain,Light Rain,200,2013-03-30 21:06:00
4:19 PM,37.4,37.4,100,29.83,0.5,WNW,5.8,-,0.01,Fog-Rain,Light Rain,290,2013-03-30 21:19:00
4:27 PM,39.2,39.2,100,29.83,0.8,West,4.6,-,0.01,Rain,Light Rain,280,2013-03-30 21:27:00
4:34 PM,39.2,39.2,100,29.83,1.0,West,5.8,-,0.01,Rain,Light Rain,260,2013-03-30 21:34:00
4:41 PM,39.2,39.2,100,29.82,0.5,West,4.6,-,0.01,Fog-Rain,Light Rain,270,2013-03-30 21:41:00
4:54 PM,39.0,39.0,100,29.86,0.5,WSW,6.9,-,0.01,Fog-Rain,Light Rain,250,2013-03-30 21:54:00
5:54 PM,39.0,39.0,100,29.84,0.2,WSW,6.9,-,0.00,Fog,Fog,250,2013-03-30 22:54:00
6:54 PM,37.9,37.9,100,29.85,0.2,West,5.8,-,N/A,Fog,Fog,280,2013-03-30 23:54:00
7:54 PM,37.0,37.0,100,29.84,0.2,WNW,6.9,-,N/A,Fog,Fog,290,2013-03-31 00:54:00
8:54 PM,36.0,36.0,100,29.86,0.2,NW,8.1,-,N/A,Fog,Fog,310,2013-03-31 01:54:00
9:27 PM,35.6,35.6,100,29.82,1.2,WNW,6.9,-,N/A,,Overcast,300,2013-03-31 02:27:00
9:36 PM,35.6,35.6,100,29.82,2.5,NW,5.8,-,N/A,,Overcast,310,2013-03-31 02:36:00
9:54 PM,36.0,36.0,100,29.85,3.0,Calm,Calm,-,N/A,,Overcast,0,2013-03-31 02:54:00
10:02 PM,35.6,35.6,100,29.81,3.0,West,3.5,-,N/A,,Overcast,260,2013-03-31 03:02:00
10:54 PM,36.0,34.0,93,29.85,5.0,WNW,6.9,-,N/A,,Overcast,290,2013-03-31 03:54:00
11:34 PM,35.6,33.8,93,29.79,3.0,West,4.6,-,N/A,,Scattered Clouds,260,2013-03-31 04:34:00
11:52 PM,33.8,33.8,100,29.79,2.5,WSW,5.8,-,N/A,,Clear,250,2013-03-31 04:52:00
11:54 PM,34.0,33.1,96,29.83,2.5,WSW,5.8,-,N/A,,Clear,250,2013-03-31 04:54:00